Year,Month,Day,Hour,Minute,Value (Times are PST for insolation in W/m^2)
2022,05,25,00,00,0.00
2022,05,25,00,01,0.00
2022,05,25,00,02,0.00
2022,05,25,00,03,0.00
2022,05,25,00,04,0.00
2022,05,25,00,05,0.00
2022,05,25,00,06,0.00
2022,05,25,00,07,0.00
2022,05,25,00,08,0.00
2022,05,25,00,09,0.00
2022,05,25,00,10,0.00
2022,05,25,00,11,0.00
2022,05,25,00,12,0.00
2022,05,25,00,13,0.00
2022,05,25,00,14,0.00
2022,05,25,00,15,0.00
2022,05,25,00,16,0.00
2022,05,25,00,17,0.00
2022,05,25,00,18,0.00
2022,05,25,00,19,0.00
2022,05,25,00,20,0.00
2022,05,25,00,21,0.00
2022,05,25,00,22,0.00
2022,05,25,00,23,0.00
2022,05,25,00,24,0.00
2022,05,25,00,25,0.00
2022,05,25,00,26,0.00
2022,05,25,00,27,0.00
2022,05,25,00,28,0.00
2022,05,25,00,29,0.00
2022,05,25,00,30,0.00
2022,05,25,00,31,0.00
2022,05,25,00,32,0.00
2022,05,25,00,33,0.00
2022,05,25,00,34,0.00
2022,05,25,00,35,0.00
2022,05,25,00,36,0.00
2022,05,25,00,37,0.00
2022,05,25,00,38,0.00
2022,05,25,00,39,0.00
2022,05,25,00,40,0.00
2022,05,25,00,41,0.00
2022,05,25,00,42,0.00
2022,05,25,00,43,0.00
2022,05,25,00,44,0.00
2022,05,25,00,45,0.00
2022,05,25,00,46,0.00
2022,05,25,00,47,0.00
2022,05,25,00,48,0.00
2022,05,25,00,49,0.00
2022,05,25,00,50,0.00
2022,05,25,00,51,0.00
2022,05,25,00,52,0.00
2022,05,25,00,53,0.00
2022,05,25,00,54,0.00
2022,05,25,00,55,0.00
2022,05,25,00,56,0.00
2022,05,25,00,57,0.00
2022,05,25,00,58,0.00
2022,05,25,00,59,0.00
2022,05,25,01,00,0.00
2022,05,25,01,01,0.00
2022,05,25,01,02,0.00
2022,05,25,01,03,0.00
2022,05,25,01,04,0.00
2022,05,25,01,05,0.00
2022,05,25,01,06,0.00
2022,05,25,01,07,0.00
2022,05,25,01,08,0.00
2022,05,25,01,09,0.00
2022,05,25,01,10,0.00
2022,05,25,01,11,0.00
2022,05,25,01,12,0.00
2022,05,25,01,13,0.00
2022,05,25,01,14,0.00
2022,05,25,01,15,0.00
2022,05,25,01,16,0.00
2022,05,25,01,17,0.00
2022,05,25,01,18,0.00
2022,05,25,01,19,0.00
2022,05,25,01,20,0.00
2022,05,25,01,21,0.00
2022,05,25,01,22,0.00
2022,05,25,01,23,0.00
2022,05,25,01,24,0.00
2022,05,25,01,25,0.00
2022,05,25,01,26,0.00
2022,05,25,01,27,0.00
2022,05,25,01,28,0.00
2022,05,25,01,29,0.00
2022,05,25,01,30,0.00
2022,05,25,01,31,0.00
2022,05,25,01,32,0.00
2022,05,25,01,33,0.00
2022,05,25,01,34,0.00
2022,05,25,01,35,0.00
2022,05,25,01,36,0.00
2022,05,25,01,37,0.00
2022,05,25,01,38,0.00
2022,05,25,01,39,0.00
2022,05,25,01,40,0.00
2022,05,25,01,41,0.00
2022,05,25,01,42,0.00
2022,05,25,01,43,0.00
2022,05,25,01,44,0.00
2022,05,25,01,45,0.00
2022,05,25,01,46,0.00
2022,05,25,01,47,0.00
2022,05,25,01,48,0.00
2022,05,25,01,49,0.00
2022,05,25,01,50,0.00
2022,05,25,01,51,0.00
2022,05,25,01,52,0.00
2022,05,25,01,53,0.00
2022,05,25,01,54,0.00
2022,05,25,01,55,0.00
2022,05,25,01,56,0.00
2022,05,25,01,57,0.00
2022,05,25,01,58,0.00
2022,05,25,01,59,0.00
2022,05,25,02,00,0.00
2022,05,25,02,01,0.00
2022,05,25,02,02,0.00
2022,05,25,02,03,0.00
2022,05,25,02,04,0.00
2022,05,25,02,05,0.00
2022,05,25,02,06,0.00
2022,05,25,02,07,0.00
2022,05,25,02,08,0.00
2022,05,25,02,09,0.00
2022,05,25,02,10,0.00
2022,05,25,02,11,0.00
2022,05,25,02,12,0.00
2022,05,25,02,13,0.00
2022,05,25,02,14,0.00
2022,05,25,02,15,0.00
2022,05,25,02,16,0.00
2022,05,25,02,17,0.00
2022,05,25,02,18,0.00
2022,05,25,02,19,0.00
2022,05,25,02,20,0.00
2022,05,25,02,21,0.00
2022,05,25,02,22,0.00
2022,05,25,02,23,0.00
2022,05,25,02,24,0.00
2022,05,25,02,25,0.00
2022,05,25,02,26,0.00
2022,05,25,02,27,0.00
2022,05,25,02,28,0.00
2022,05,25,02,29,0.00
2022,05,25,02,30,0.00
2022,05,25,02,31,0.00
2022,05,25,02,32,0.00
2022,05,25,02,33,0.00
2022,05,25,02,34,0.00
2022,05,25,02,35,0.00
2022,05,25,02,36,0.00
2022,05,25,02,37,0.00
2022,05,25,02,38,0.00
2022,05,25,02,39,0.00
2022,05,25,02,40,0.00
2022,05,25,02,41,0.00
2022,05,25,02,42,0.00
2022,05,25,02,43,0.00
2022,05,25,02,44,0.00
2022,05,25,02,45,0.00
2022,05,25,02,46,0.00
2022,05,25,02,47,0.00
2022,05,25,02,48,0.00
2022,05,25,02,49,0.00
2022,05,25,02,50,0.00
2022,05,25,02,51,0.00
2022,05,25,02,52,0.00
2022,05,25,02,53,0.00
2022,05,25,02,54,0.00
2022,05,25,02,55,0.00
2022,05,25,02,56,0.00
2022,05,25,02,57,0.00
2022,05,25,02,58,0.00
2022,05,25,02,59,0.00
2022,05,25,03,00,0.00
2022,05,25,03,01,0.00
2022,05,25,03,02,0.00
2022,05,25,03,03,0.00
2022,05,25,03,04,0.00
2022,05,25,03,05,0.00
2022,05,25,03,06,0.00
2022,05,25,03,07,0.00
2022,05,25,03,08,0.00
2022,05,25,03,09,0.00
2022,05,25,03,10,0.00
2022,05,25,03,11,0.00
2022,05,25,03,12,0.00
2022,05,25,03,13,0.00
2022,05,25,03,14,0.00
2022,05,25,03,15,0.00
2022,05,25,03,16,0.00
2022,05,25,03,17,0.00
2022,05,25,03,18,0.00
2022,05,25,03,19,0.00
2022,05,25,03,20,0.00
2022,05,25,03,21,0.00
2022,05,25,03,22,0.00
2022,05,25,03,23,0.00
2022,05,25,03,24,0.00
2022,05,25,03,25,0.00
2022,05,25,03,26,0.00
2022,05,25,03,27,0.00
2022,05,25,03,28,0.00
2022,05,25,03,29,0.00
2022,05,25,03,30,0.00
2022,05,25,03,31,0.00
2022,05,25,03,32,0.00
2022,05,25,03,33,0.00
2022,05,25,03,34,0.00
2022,05,25,03,35,0.00
2022,05,25,03,36,0.00
2022,05,25,03,37,0.00
2022,05,25,03,38,0.00
2022,05,25,03,39,0.00
2022,05,25,03,40,0.00
2022,05,25,03,41,0.00
2022,05,25,03,42,0.00
2022,05,25,03,43,0.00
2022,05,25,03,44,0.00
2022,05,25,03,45,0.00
2022,05,25,03,46,0.00
2022,05,25,03,47,0.00
2022,05,25,03,48,0.00
2022,05,25,03,49,0.00
2022,05,25,03,50,0.00
2022,05,25,03,51,0.00
2022,05,25,03,52,0.00
2022,05,25,03,53,0.00
2022,05,25,03,54,0.00
2022,05,25,03,55,0.00
2022,05,25,03,56,0.00
2022,05,25,03,57,0.00
2022,05,25,03,58,0.00
2022,05,25,03,59,0.00
2022,05,25,04,00,0.00
2022,05,25,04,01,0.00
2022,05,25,04,02,0.00
2022,05,25,04,03,0.00
2022,05,25,04,04,0.00
2022,05,25,04,05,0.00
2022,05,25,04,06,0.00
2022,05,25,04,07,0.00
2022,05,25,04,08,0.00
2022,05,25,04,09,0.00
2022,05,25,04,10,0.00
2022,05,25,04,11,0.00
2022,05,25,04,12,0.00
2022,05,25,04,13,0.00
2022,05,25,04,14,0.00
2022,05,25,04,15,0.00
2022,05,25,04,16,0.00
2022,05,25,04,17,0.00
2022,05,25,04,18,0.00
2022,05,25,04,19,0.00
2022,05,25,04,20,0.00
2022,05,25,04,21,0.00
2022,05,25,04,22,0.00
2022,05,25,04,23,0.00
2022,05,25,04,24,0.00
2022,05,25,04,25,0.00
2022,05,25,04,26,0.00
2022,05,25,04,27,0.00
2022,05,25,04,28,0.00
2022,05,25,04,29,0.00
2022,05,25,04,30,0.00
2022,05,25,04,31,0.00
2022,05,25,04,32,0.00
2022,05,25,04,33,0.00
2022,05,25,04,34,0.00
2022,05,25,04,35,0.00
2022,05,25,04,36,0.00
2022,05,25,04,37,0.00
2022,05,25,04,38,0.00
2022,05,25,04,39,0.00
2022,05,25,04,40,0.00
2022,05,25,04,41,0.00
2022,05,25,04,42,0.00
2022,05,25,04,43,0.00
2022,05,25,04,44,0.00
2022,05,25,04,45,0.00
2022,05,25,04,46,0.00
2022,05,25,04,47,0.00
2022,05,25,04,48,0.00
2022,05,25,04,49,0.00
2022,05,25,04,50,0.00
2022,05,25,04,51,0.00
2022,05,25,04,52,0.00
2022,05,25,04,53,0.00
2022,05,25,04,54,0.00
2022,05,25,04,55,0.00
2022,05,25,04,56,0.00
2022,05,25,04,57,0.00
2022,05,25,04,58,0.00
2022,05,25,04,59,0.00
2022,05,25,05,00,0.00
2022,05,25,05,01,0.00
2022,05,25,05,02,0.00
2022,05,25,05,03,0.00
2022,05,25,05,04,0.00
2022,05,25,05,05,0.00
2022,05,25,05,06,0.00
2022,05,25,05,07,0.00
2022,05,25,05,08,0.00
2022,05,25,05,09,0.00
2022,05,25,05,10,0.00
2022,05,25,05,11,0.00
2022,05,25,05,12,0.00
2022,05,25,05,13,0.00
2022,05,25,05,14,0.00
2022,05,25,05,15,0.00
2022,05,25,05,16,0.00
2022,05,25,05,17,0.00
2022,05,25,05,18,0.00
2022,05,25,05,19,0.00
2022,05,25,05,20,0.00
2022,05,25,05,21,0.00
2022,05,25,05,22,0.00
2022,05,25,05,23,0.00
2022,05,25,05,24,0.00
2022,05,25,05,25,0.00
2022,05,25,05,26,0.00
2022,05,25,05,27,0.00
2022,05,25,05,28,0.00
2022,05,25,05,29,0.00
2022,05,25,05,30,0.00
2022,05,25,05,31,4.40
2022,05,25,05,32,5.00
2022,05,25,05,33,5.00
2022,05,25,05,34,5.00
2022,05,25,05,35,5.00
2022,05,25,05,36,6.20
2022,05,25,05,37,7.00
2022,05,25,05,38,7.00
2022,05,25,05,39,9.00
2022,05,25,05,40,9.00
2022,05,25,05,41,9.70
2022,05,25,05,42,11.00
2022,05,25,05,43,11.00
2022,05,25,05,44,11.00
2022,05,25,05,45,11.00
2022,05,25,05,46,11.00
2022,05,25,05,47,11.00
2022,05,25,05,48,11.00
2022,05,25,05,49,11.50
2022,05,25,05,50,12.00
2022,05,25,05,51,12.00
2022,05,25,05,52,12.00
2022,05,25,05,53,14.00
2022,05,25,05,54,14.50
2022,05,25,05,55,16.00
2022,05,25,05,56,16.00
2022,05,25,05,57,16.00
2022,05,25,05,58,16.00
2022,05,25,05,59,16.00
2022,05,25,06,00,16.00
2022,05,25,06,01,16.00
2022,05,25,06,02,15.20
2022,05,25,06,03,14.00
2022,05,25,06,04,14.00
2022,05,25,06,05,15.50
2022,05,25,06,06,16.00
2022,05,25,06,07,16.00
2022,05,25,06,08,16.50
2022,05,25,06,09,18.00
2022,05,25,06,10,18.50
2022,05,25,06,11,19.00
2022,05,25,06,12,20.50
2022,05,25,06,13,22.80
2022,05,25,06,14,25.10
2022,05,25,06,15,26.00
2022,05,25,06,16,26.70
2022,05,25,06,17,29.00
2022,05,25,06,18,30.00
2022,05,25,06,19,31.50
2022,05,25,06,20,32.90
2022,05,25,06,21,33.00
2022,05,25,06,22,33.00
2022,05,25,06,23,33.80
2022,05,25,06,24,35.00
2022,05,25,06,25,35.00
2022,05,25,06,26,36.50
2022,05,25,06,27,38.80
2022,05,25,06,28,42.20
2022,05,25,06,29,44.00
2022,05,25,06,30,44.80
2022,05,25,06,31,46.00
2022,05,25,06,32,46.00
2022,05,25,06,33,46.80
2022,05,25,06,34,48.80
2022,05,25,06,35,51.30
2022,05,25,06,36,54.50
2022,05,25,06,37,56.70
2022,05,25,06,38,60.00
2022,05,25,06,39,62.60
2022,05,25,06,40,64.50
2022,05,25,06,41,68.40
2022,05,25,06,42,70.00
2022,05,25,06,43,70.50
2022,05,25,06,44,73.50
2022,05,25,06,45,78.50
2022,05,25,06,46,82.20
2022,05,25,06,47,83.00
2022,05,25,06,48,85.70
2022,05,25,06,49,88.20
2022,05,25,06,50,91.20
2022,05,25,06,51,96.20
2022,05,25,06,52,100.00
2022,05,25,06,53,99.50
2022,05,25,06,54,99.50
2022,05,25,06,55,98.30
2022,05,25,06,56,104.70
2022,05,25,06,57,112.20
2022,05,25,06,58,122.50
2022,05,25,06,59,126.50
2022,05,25,07,00,131.70
2022,05,25,07,01,134.00
2022,05,25,07,02,144.60
2022,05,25,07,03,150.70
2022,05,25,07,04,147.10
2022,05,25,07,05,138.10
2022,05,25,07,06,124.50
2022,05,25,07,07,116.40
2022,05,25,07,08,117.10
2022,05,25,07,09,105.60
2022,05,25,07,10,93.50
2022,05,25,07,11,98.60
2022,05,25,07,12,104.30
2022,05,25,07,13,101.60
2022,05,25,07,14,101.90
2022,05,25,07,15,109.40
2022,05,25,07,16,117.20
2022,05,25,07,17,120.10
2022,05,25,07,18,122.60
2022,05,25,07,19,129.70
2022,05,25,07,20,141.50
2022,05,25,07,21,142.80
2022,05,25,07,22,135.30
2022,05,25,07,23,140.20
2022,05,25,07,24,135.20
2022,05,25,07,25,138.20
2022,05,25,07,26,152.00
2022,05,25,07,27,163.50
2022,05,25,07,28,156.80
2022,05,25,07,29,137.00
2022,05,25,07,30,121.20
2022,05,25,07,31,116.20
2022,05,25,07,32,117.50
2022,05,25,07,33,116.00
2022,05,25,07,34,115.00
2022,05,25,07,35,112.20
2022,05,25,07,36,104.40
2022,05,25,07,37,94.00
2022,05,25,07,38,89.80
2022,05,25,07,39,88.50
2022,05,25,07,40,90.40
2022,05,25,07,41,92.00
2022,05,25,07,42,95.50
2022,05,25,07,43,97.80
2022,05,25,07,44,98.00
2022,05,25,07,45,97.90
2022,05,25,07,46,96.10
2022,05,25,07,47,93.00
2022,05,25,07,48,92.00
2022,05,25,07,49,91.00
2022,05,25,07,50,90.30
2022,05,25,07,51,88.20
2022,05,25,07,52,87.80
2022,05,25,07,53,85.50
2022,05,25,07,54,83.60
2022,05,25,07,55,83.50
2022,05,25,07,56,85.30
2022,05,25,07,57,86.00
2022,05,25,07,58,83.30
2022,05,25,07,59,83.10
2022,05,25,08,00,85.40
2022,05,25,08,01,92.40
2022,05,25,08,02,98.50
2022,05,25,08,03,102.50
2022,05,25,08,04,104.70
2022,05,25,08,05,105.00
2022,05,25,08,06,105.20
2022,05,25,08,07,107.90
2022,05,25,08,08,114.50
2022,05,25,08,09,124.00
2022,05,25,08,10,128.00
2022,05,25,08,11,137.60
2022,05,25,08,12,141.00
2022,05,25,08,13,140.80
2022,05,25,08,14,139.00
2022,05,25,08,15,138.30
2022,05,25,08,16,136.00
2022,05,25,08,17,133.20
2022,05,25,08,18,129.10
2022,05,25,08,19,129.80
2022,05,25,08,20,131.60
2022,05,25,08,21,145.30
2022,05,25,08,22,149.80
2022,05,25,08,23,148.50
2022,05,25,08,24,143.40
2022,05,25,08,25,141.20
2022,05,25,08,26,143.70
2022,05,25,08,27,149.80
2022,05,25,08,28,158.30
2022,05,25,08,29,169.20
2022,05,25,08,30,182.00
2022,05,25,08,31,195.40
2022,05,25,08,32,208.50
2022,05,25,08,33,219.00
2022,05,25,08,34,223.20
2022,05,25,08,35,224.50
2022,05,25,08,36,221.10
2022,05,25,08,37,215.50
2022,05,25,08,38,213.00
2022,05,25,08,39,218.10
2022,05,25,08,40,226.00
2022,05,25,08,41,234.60
2022,05,25,08,42,239.90
2022,05,25,08,43,243.40
2022,05,25,08,44,244.00
2022,05,25,08,45,242.10
2022,05,25,08,46,237.90
2022,05,25,08,47,232.60
2022,05,25,08,48,224.80
2022,05,25,08,49,222.50
2022,05,25,08,50,221.00
2022,05,25,08,51,222.00
2022,05,25,08,52,224.20
2022,05,25,08,53,226.50
2022,05,25,08,54,229.70
2022,05,25,08,55,236.60
2022,05,25,08,56,242.30
2022,05,25,08,57,247.80
2022,05,25,08,58,252.00
2022,05,25,08,59,254.20
2022,05,25,09,00,260.20
2022,05,25,09,01,270.80
2022,05,25,09,02,280.30
2022,05,25,09,03,291.30
2022,05,25,09,04,295.00
2022,05,25,09,05,298.00
2022,05,25,09,06,304.10
2022,05,25,09,07,313.40
2022,05,25,09,08,328.40
2022,05,25,09,09,329.90
2022,05,25,09,10,329.20
2022,05,25,09,11,331.50
2022,05,25,09,12,341.00
2022,05,25,09,13,351.10
2022,05,25,09,14,350.80
2022,05,25,09,15,352.60
2022,05,25,09,16,347.40
2022,05,25,09,17,343.80
2022,05,25,09,18,347.50
2022,05,25,09,19,362.00
2022,05,25,09,20,369.00
2022,05,25,09,21,368.30
2022,05,25,09,22,389.30
2022,05,25,09,23,401.50
2022,05,25,09,24,440.30
2022,05,25,09,25,445.10
2022,05,25,09,26,423.50
2022,05,25,09,27,434.50
2022,05,25,09,28,448.00
2022,05,25,09,29,448.00
2022,05,25,09,30,449.80
2022,05,25,09,31,460.20
2022,05,25,09,32,481.60
2022,05,25,09,33,450.00
2022,05,25,09,34,485.90
2022,05,25,09,35,444.80
2022,05,25,09,36,431.40
2022,05,25,09,37,443.00
2022,05,25,09,38,439.30
2022,05,25,09,39,427.80
2022,05,25,09,40,424.50
2022,05,25,09,41,422.50
2022,05,25,09,42,424.00
2022,05,25,09,43,417.80
2022,05,25,09,44,400.60
2022,05,25,09,45,413.50
2022,05,25,09,46,416.00
2022,05,25,09,47,424.70
2022,05,25,09,48,427.40
2022,05,25,09,49,444.20
2022,05,25,09,50,484.50
2022,05,25,09,51,467.60
2022,05,25,09,52,482.10
2022,05,25,09,53,495.60
2022,05,25,09,54,497.10
2022,05,25,09,55,477.80
2022,05,25,09,56,460.70
2022,05,25,09,57,447.30
2022,05,25,09,58,458.80
2022,05,25,09,59,453.30
2022,05,25,10,00,437.70
2022,05,25,10,01,433.00
2022,05,25,10,02,444.50
2022,05,25,10,03,485.40
2022,05,25,10,04,496.00
2022,05,25,10,05,535.50
2022,05,25,10,06,471.80
2022,05,25,10,07,455.90
2022,05,25,10,08,471.00
2022,05,25,10,09,518.70
2022,05,25,10,10,557.10
2022,05,25,10,11,482.90
2022,05,25,10,12,450.10
2022,05,25,10,13,419.30
2022,05,25,10,14,415.50
2022,05,25,10,15,415.00
2022,05,25,10,16,412.70
2022,05,25,10,17,415.80
2022,05,25,10,18,412.10
2022,05,25,10,19,433.80
2022,05,25,10,20,458.00
2022,05,25,10,21,473.20
2022,05,25,10,22,474.00
2022,05,25,10,23,434.00
2022,05,25,10,24,403.20
2022,05,25,10,25,396.30
2022,05,25,10,26,387.10
2022,05,25,10,27,383.60
2022,05,25,10,28,395.90
2022,05,25,10,29,403.50
2022,05,25,10,30,420.90
2022,05,25,10,31,430.50
2022,05,25,10,32,431.00
2022,05,25,10,33,453.30
2022,05,25,10,34,446.40
2022,05,25,10,35,441.80
2022,05,25,10,36,451.00
2022,05,25,10,37,446.10
2022,05,25,10,38,441.70
2022,05,25,10,39,449.20
2022,05,25,10,40,465.10
2022,05,25,10,41,490.60
2022,05,25,10,42,492.20
2022,05,25,10,43,473.90
2022,05,25,10,44,494.70
2022,05,25,10,45,562.00
2022,05,25,10,46,602.70
2022,05,25,10,47,592.30
2022,05,25,10,48,479.60
2022,05,25,10,49,457.20
2022,05,25,10,50,470.50
2022,05,25,10,51,504.60
2022,05,25,10,52,535.30
2022,05,25,10,53,541.00
2022,05,25,10,54,704.40
2022,05,25,10,55,724.50
2022,05,25,10,56,699.10
2022,05,25,10,57,656.00
2022,05,25,10,58,557.10
2022,05,25,10,59,499.00
2022,05,25,11,00,581.70
2022,05,25,11,01,592.00
2022,05,25,11,02,592.00
2022,05,25,11,03,714.70
2022,05,25,11,04,925.50
2022,05,25,11,05,908.60
2022,05,25,11,06,892.00
2022,05,25,11,07,897.40
2022,05,25,11,08,864.10
2022,05,25,11,09,806.30
2022,05,25,11,10,856.00
2022,05,25,11,11,856.00
2022,05,25,11,12,805.00
2022,05,25,11,13,838.10
2022,05,25,11,14,858.00
2022,05,25,11,15,745.00
2022,05,25,11,16,745.00
2022,05,25,11,17,775.40
2022,05,25,11,18,811.00
2022,05,25,11,19,798.00
2022,05,25,11,20,577.30
2022,05,25,11,21,496.00
2022,05,25,11,22,496.00
2022,05,25,11,23,496.00
2022,05,25,11,24,496.00
2022,05,25,11,25,496.00
2022,05,25,11,26,590.20
2022,05,25,11,27,649.00
2022,05,25,11,28,649.00
2022,05,25,11,29,911.00
2022,05,25,11,30,911.00
2022,05,25,11,31,911.00
2022,05,25,11,32,911.00
2022,05,25,11,33,677.40
2022,05,25,11,34,491.40
2022,05,25,11,35,506.50
2022,05,25,11,36,578.00
2022,05,25,11,37,636.40
2022,05,25,11,38,805.00
2022,05,25,11,39,823.50
2022,05,25,11,40,826.00
2022,05,25,11,41,832.60
2022,05,25,11,42,860.40
2022,05,25,11,43,819.00
2022,05,25,11,44,837.70
2022,05,25,11,45,867.90
2022,05,25,11,46,860.00
2022,05,25,11,47,893.30
2022,05,25,11,48,907.50
2022,05,25,11,49,885.30
2022,05,25,11,50,860.60
2022,05,25,11,51,865.00
2022,05,25,11,52,865.00
2022,05,25,11,53,838.50
2022,05,25,11,54,846.90
2022,05,25,11,55,870.00
2022,05,25,11,56,816.00
2022,05,25,11,57,781.40
2022,05,25,11,58,729.00
2022,05,25,11,59,786.00
2022,05,25,12,00,831.20
2022,05,25,12,01,877.70
2022,05,25,12,02,869.40
2022,05,25,12,03,876.00
2022,05,25,12,04,815.50
2022,05,25,12,05,839.30
2022,05,25,12,06,773.50
2022,05,25,12,07,767.00
2022,05,25,12,08,808.50
2022,05,25,12,09,864.20
2022,05,25,12,10,843.70
2022,05,25,12,11,879.70
2022,05,25,12,12,881.60
2022,05,25,12,13,881.90
2022,05,25,12,14,897.50
2022,05,25,12,15,902.00
2022,05,25,12,16,885.80
2022,05,25,12,17,899.60
2022,05,25,12,18,911.50
2022,05,25,12,19,853.80
2022,05,25,12,20,879.00
2022,05,25,12,21,928.90
2022,05,25,12,22,931.20
2022,05,25,12,23,934.20
2022,05,25,12,24,933.30
2022,05,25,12,25,924.60
2022,05,25,12,26,882.10
2022,05,25,12,27,938.50
2022,05,25,12,28,927.00
2022,05,25,12,29,855.60
2022,05,25,12,30,821.00
2022,05,25,12,31,913.00
2022,05,25,12,32,925.00
2022,05,25,12,33,936.80
2022,05,25,12,34,971.80
2022,05,25,12,35,975.50
2022,05,25,12,36,994.80
2022,05,25,12,37,953.10
2022,05,25,12,38,955.80
2022,05,25,12,39,956.50
2022,05,25,12,40,891.00
2022,05,25,12,41,891.00
2022,05,25,12,42,891.00
2022,05,25,12,43,1020.80
2022,05,25,12,44,1127.20
2022,05,25,12,45,1136.00
2022,05,25,12,46,629.00
2022,05,25,12,47,530.20
2022,05,25,12,48,492.20
2022,05,25,12,49,526.00
2022,05,25,12,50,526.00
2022,05,25,12,51,994.40
2022,05,25,12,52,1167.00
2022,05,25,12,53,1167.00
2022,05,25,12,54,1167.00
2022,05,25,12,55,1164.30
2022,05,25,12,56,1160.00
2022,05,25,12,57,914.50
2022,05,25,12,58,785.80
2022,05,25,12,59,795.00
2022,05,25,13,00,795.00
2022,05,25,13,01,795.00
2022,05,25,13,02,795.00
2022,05,25,13,03,795.00
2022,05,25,13,04,795.00
2022,05,25,13,05,795.00
2022,05,25,13,06,795.00
2022,05,25,13,07,556.50
2022,05,25,13,08,565.50
2022,05,25,13,09,565.50
2022,05,25,13,10,580.00
2022,05,25,13,11,580.00
2022,05,25,13,12,580.00
2022,05,25,13,13,1068.30
2022,05,25,13,14,1132.00
2022,05,25,13,15,1174.70
2022,05,25,13,16,1305.80
2022,05,25,13,17,1247.00
2022,05,25,13,18,1206.00
2022,05,25,13,19,1161.60
2022,05,25,13,20,1146.00
2022,05,25,13,21,1086.00
2022,05,25,13,22,1086.00
2022,05,25,13,23,1086.00
2022,05,25,13,24,1085.50
2022,05,25,13,25,1085.00
2022,05,25,13,26,859.90
2022,05,25,13,27,777.00
2022,05,25,13,28,811.00
2022,05,25,13,29,998.00
2022,05,25,13,30,998.00
2022,05,25,13,31,790.00
2022,05,25,13,32,602.30
2022,05,25,13,33,630.40
2022,05,25,13,34,696.90
2022,05,25,13,35,690.60
2022,05,25,13,36,570.90
2022,05,25,13,37,540.80
2022,05,25,13,38,537.00
2022,05,25,13,39,527.10
2022,05,25,13,40,517.50
2022,05,25,13,41,502.80
2022,05,25,13,42,503.30
2022,05,25,13,43,558.80
2022,05,25,13,44,603.80
2022,05,25,13,45,545.00
2022,05,25,13,46,545.00
2022,05,25,13,47,545.00
2022,05,25,13,48,545.00
2022,05,25,13,49,545.00
2022,05,25,13,50,684.80
2022,05,25,13,51,1139.10
2022,05,25,13,52,1120.00
2022,05,25,13,53,1120.00
2022,05,25,13,54,622.20
2022,05,25,13,55,440.00
2022,05,25,13,56,439.00
2022,05,25,13,57,450.00
2022,05,25,13,58,485.40
2022,05,25,13,59,494.00
2022,05,25,14,00,494.00
2022,05,25,14,01,494.00
2022,05,25,14,02,510.90
2022,05,25,14,03,608.00
2022,05,25,14,04,559.30
2022,05,25,14,05,421.60
2022,05,25,14,06,450.00
2022,05,25,14,07,434.10
2022,05,25,14,08,430.20
2022,05,25,14,09,484.40
2022,05,25,14,10,492.00
2022,05,25,14,11,492.00
2022,05,25,14,12,492.00
2022,05,25,14,13,372.50
2022,05,25,14,14,274.50
2022,05,25,14,15,288.00
2022,05,25,14,16,288.00
2022,05,25,14,17,288.00
2022,05,25,14,18,288.00
2022,05,25,14,19,288.00
2022,05,25,14,20,288.00
2022,05,25,14,21,288.00
2022,05,25,14,22,288.00
2022,05,25,14,23,288.00
2022,05,25,14,24,288.00
2022,05,25,14,25,448.60
2022,05,25,14,26,976.70
2022,05,25,14,27,971.00
2022,05,25,14,28,991.50
2022,05,25,14,29,982.50
2022,05,25,14,30,977.00
2022,05,25,14,31,977.00
2022,05,25,14,32,944.70
2022,05,25,14,33,873.50
2022,05,25,14,34,936.00
2022,05,25,14,35,922.40
2022,05,25,14,36,916.60
2022,05,25,14,37,922.40
2022,05,25,14,38,913.60
2022,05,25,14,39,929.30
2022,05,25,14,40,900.70
2022,05,25,14,41,898.00
2022,05,25,14,42,961.20
2022,05,25,14,43,970.00
2022,05,25,14,44,970.00
2022,05,25,14,45,927.20
2022,05,25,14,46,921.50
2022,05,25,14,47,889.90
2022,05,25,14,48,866.00
2022,05,25,14,49,895.00
2022,05,25,14,50,895.00
2022,05,25,14,51,864.90
2022,05,25,14,52,858.00
2022,05,25,14,53,858.00
2022,05,25,14,54,859.20
2022,05,25,14,55,864.00
2022,05,25,14,56,870.10
2022,05,25,14,57,878.60
2022,05,25,14,58,889.90
2022,05,25,14,59,898.00
2022,05,25,15,00,914.00
2022,05,25,15,01,938.30
2022,05,25,15,02,971.60
2022,05,25,15,03,988.00
2022,05,25,15,04,988.00
2022,05,25,15,05,591.70
2022,05,25,15,06,540.00
2022,05,25,15,07,540.00
2022,05,25,15,08,549.60
2022,05,25,15,09,542.10
2022,05,25,15,10,520.00
2022,05,25,15,11,520.00
2022,05,25,15,12,385.40
2022,05,25,15,13,362.00
2022,05,25,15,14,362.00
2022,05,25,15,15,362.00
2022,05,25,15,16,342.00
2022,05,25,15,17,308.80
2022,05,25,15,18,307.20
2022,05,25,15,19,309.00
2022,05,25,15,20,548.00
2022,05,25,15,21,515.20
2022,05,25,15,22,406.00
2022,05,25,15,23,406.00
2022,05,25,15,24,406.00
2022,05,25,15,25,406.00
2022,05,25,15,26,406.00
2022,05,25,15,27,406.00
2022,05,25,15,28,374.40
2022,05,25,15,29,278.30
2022,05,25,15,30,308.00
2022,05,25,15,31,350.70
2022,05,25,15,32,367.00
2022,05,25,15,33,367.00
2022,05,25,15,34,331.70
2022,05,25,15,35,346.20
2022,05,25,15,36,350.00
2022,05,25,15,37,386.00
2022,05,25,15,38,372.70
2022,05,25,15,39,309.40
2022,05,25,15,40,384.60
2022,05,25,15,41,396.00
2022,05,25,15,42,396.00
2022,05,25,15,43,350.70
2022,05,25,15,44,265.00
2022,05,25,15,45,684.70
2022,05,25,15,46,888.50
2022,05,25,15,47,900.70
2022,05,25,15,48,905.00
2022,05,25,15,49,762.40
2022,05,25,15,50,276.60
2022,05,25,15,51,262.20
2022,05,25,15,52,289.20
2022,05,25,15,53,362.50
2022,05,25,15,54,431.40
2022,05,25,15,55,490.70
2022,05,25,15,56,452.10
2022,05,25,15,57,420.90
2022,05,25,15,58,368.00
2022,05,25,15,59,376.00
2022,05,25,16,00,434.50
2022,05,25,16,01,455.00
2022,05,25,16,02,457.80
2022,05,25,16,03,473.00
2022,05,25,16,04,402.80
2022,05,25,16,05,273.70
2022,05,25,16,06,287.30
2022,05,25,16,07,300.80
2022,05,25,16,08,303.80
2022,05,25,16,09,403.00
2022,05,25,16,10,403.00
2022,05,25,16,11,332.60
2022,05,25,16,12,208.50
2022,05,25,16,13,198.80
2022,05,25,16,14,217.00
2022,05,25,16,15,274.30
2022,05,25,16,16,330.20
2022,05,25,16,17,386.20
2022,05,25,16,18,335.80
2022,05,25,16,19,302.00
2022,05,25,16,20,302.00
2022,05,25,16,21,302.00
2022,05,25,16,22,459.50
2022,05,25,16,23,450.80
2022,05,25,16,24,247.50
2022,05,25,16,25,306.80
2022,05,25,16,26,281.50
2022,05,25,16,27,263.60
2022,05,25,16,28,269.00
2022,05,25,16,29,269.00
2022,05,25,16,30,529.00
2022,05,25,16,31,529.00
2022,05,25,16,32,529.00
2022,05,25,16,33,360.50
2022,05,25,16,34,206.00
2022,05,25,16,35,279.30
2022,05,25,16,36,281.50
2022,05,25,16,37,279.00
2022,05,25,16,38,251.50
2022,05,25,16,39,159.30
2022,05,25,16,40,163.30
2022,05,25,16,41,178.20
2022,05,25,16,42,204.50
2022,05,25,16,43,243.70
2022,05,25,16,44,248.00
2022,05,25,16,45,248.00
2022,05,25,16,46,248.00
2022,05,25,16,47,248.00
2022,05,25,16,48,486.70
2022,05,25,16,49,613.00
2022,05,25,16,50,613.00
2022,05,25,16,51,613.00
2022,05,25,16,52,540.10
2022,05,25,16,53,278.30
2022,05,25,16,54,243.00
2022,05,25,16,55,295.30
2022,05,25,16,56,323.00
2022,05,25,16,57,567.20
2022,05,25,16,58,559.00
2022,05,25,16,59,340.30
2022,05,25,17,00,371.00
2022,05,25,17,01,371.00
2022,05,25,17,02,310.80
2022,05,25,17,03,279.00
2022,05,25,17,04,279.00
2022,05,25,17,05,290.20
2022,05,25,17,06,376.00
2022,05,25,17,07,440.20